Temp
17 16 16 16 15 15 15 16 16 15 15 16 15 16 16 15 15 15 16 16 15 15 15 15 15 16 17 16 17 18 18 18 18 17 17 17 16 15 16 16 16 16 16
17 16 16 16 16 15 16 15 15 15 15 15 15 15 15 15 15 15 15 14 14 15 15 15 15 15 16 16 17 17 17 17 17 16 16 16 16 16 15 16 16 16 16
17 17 16 15 15 15 15 15 15 15 15 15 14 14 15 15 14 14 14 14 14 15 15 15 15 15 15 16 15 16 16 16 16 16 16 16 16 16 15 15 16 15 15
17 17 16 15 15 15 15 15 15 15 15 15 15 14 14 14 14 14 14 13 14 14 14 14 14 14 14 14 14 14 14 14 15 15 15 16 15 15 14 14 14 14 14
17 17 16 16 15 15 15 15 15 15 14 14 14 14 14 14 14 14 13 13 13 13 13 13 13 13 13 13 13 14 14 15 15 14 14 15 13 15 13 13 13 13 12
17 17 16 16 16 15 15 15 15 14 14 14 14 13 13 13 13 13 13 13 13 12 12 12 12 12 12 12 13 13 13 13 13 13 14 14 12 13 12 13 13 13 13
17 17 16 16 15 16 15 15 14 14 14 13 13 13 13 13 13 12 12 12 13 12 12 12 11 11 11 12 12 12 12 13 14 15 14 13 12 13 13 13 12 12 12
17 17 17 16 16 15 15 14 14 14 14 14 13 13 13 13 12 12 12 11 10 11 10 11 11 11 11 11 12 12 12 13 13 12 12 12 12 12 12 12 11 11 11
16 16 16 16 15 15 14 14 13 13 13 12 14 14 13 12 12 12 11 11 11 10 11 11 11 10 10 10 10 11 11 12 11 11 11 11 11 11 10 10 10 10 9
15 15 15 15 15 15 15 13 13 12 12 11 13 13 13 12 11 11 11 11 10 10 10 10 10 10 9 9 10 10 10 10 10 10 10 9 9 9 9 9 8 9 8
15 15 15 15 14 14 14 13 13 12 11 11 11 11 11 10 10 9 9 9 8 9 9 9 9 8 8 9 8 9 9 8 8 7 7 7 6 6 5 5 6 6 7
14 14 14 14 13 12 12 12 11 11 10 10 10 10 9 8 9 9 9 8 7 7 7 7 7 7 7 8 8 7 7 6 7 6 6 6 6 6 6 5 5 5 5
13 13 13 13 12 12 11 11 10 9 8 8 7 8 8 8 7 7 7 7 7 7 7 7 7 7 7 6 5 4 5 5 6 6 6 5 5 4 5 5 4 4 4
11 11 10 10 10 10 10 9 8 8 7 7 7 7 7 7 7 7 7 7 6 6 5 5 5 5 4 4 4 4 4 4 4 4 4 4 4 4 4 4 4 4 4
10 10 10 9 9 8 8 7 7 6 6 7 7 7 7 7 7 7 7 6 6 5 4 4 4 4 4 4 4 3 3 3 3 3 3 3 3 3 3 3 3 4 4
9 8 8 8 7 7 7 6 6 6 6 6 6 6 7 7 7 6 6 5 4 4 4 4 4 4 3 3 3 3 3 3 3 3 3 2 2 2 3 3 3 3 3
7 6 6 7 7 7 7 7 6 5 5 5 5 6 6 6 5 5 5 5 5 5 5 4 4 3 3 3 3 3 3 3 2 2 2 2 2 2 2 3 3 3 3
8 8 8 9 8 7 7 7 6 5 6 6 5 5 5 5 5 5 5 5 5 6 5 4 4 4 4 4 3 3 2 2 2 2 2 2 2 2 2 2 2 2 2
9 9 10 10 10 10 9 9 8 7 6 6 5 5 5 5 5 5 5 5 6 6 5 5 4 3 3 3 2 2 2 2 2 1 2 1 1 1 1 2 2 2 2
11 11 10 10 10 10 10 10 9 9 9 7 5 5 5 5 6 6 5 5 5 5 5 5 4 3 3 2 2 2 2 2 2 1 1 1 1 1 1 1 1 1 2
11 10 10 11 11 10 10 9 9 8 8 7 7 6 6 6 7 6 6 5 4 4 4 3 4 4 3 3 2 1 2 2 2 1 0 0 0 0 0 1 1 1 1
11 11 10 10 10 9 9 8 8 7 7 7 6 6 6 6 6 5 5 4 4 3 3 2 3 3 3 2 1 1 1 2 1 -0 -1 -1 -0 0 0 -0 0 1 1
11 11 10 10 9 9 8 8 8 8 8 7 7 6 6 6 5 5 4 4 3 3 2 2 2 3 2 2 1 1 1 1 0 -0 -1 -1 -1 -0 -1 -0 -0 0 0
11 11 11 10 9 9 8 8 7 8 8 8 7 7 6 6 5 4 4 3 3 3 3 3 2 2 1 1 1 1 1 0 -0 -1 -1 -1 -2 -1 -1 -1 -0 -0 -0
11 11 11 10 10 9 9 8 8 8 8 7 7 7 6 5 5 4 4 3 3 3 3 2 2 1 1 0 0 0 -0 -0 -1 -1 -1 -1 -1 -1 -1 -1 -1 -1 -0
10 10 10 10 10 10 9 9 9 8 8 7 7 6 6 5 5 4 4 3 3 3 3 2 1 1 0 0 0 0 -0 -0 -0 -1 -1 -1 -2 -2 -1 -2 -1 -1 -0
Height
1506 1506 1504 1504 1502 1501 1499 1499 1499 1499 1498 1497 1498 1499 1500 1503 1507 1511 1513 1519 1523 1528 1531 1534 1536 1539 1539 1539 1539 1541 1544 1545 1546 1547 1547 1548 1549 1550 1552 1552 1554 1554 1555
1505 1506 1505 1505 1504 1503 1503 1503 1502 1502 1503 1502 1501 1502 1505 1507 1508 1510 1514 1520 1524 1527 1529 1532 1535 1536 1536 1538 1539 1541 1542 1543 1543 1544 1546 1547 1548 1548 1549 1550 1551 1553 1554
1504 1506 1506 1505 1506 1505 1505 1505 1504 1504 1504 1504 1505 1506 1506 1507 1510 1513 1516 1520 1523 1525 1528 1531 1533 1534 1534 1535 1538 1539 1540 1542 1541 1542 1544 1545 1545 1547 1548 1549 1550 1552 1552
1504 1505 1505 1505 1506 1506 1506 1505 1505 1505 1506 1506 1507 1507 1509 1511 1513 1515 1517 1518 1521 1522 1525 1528 1531 1532 1533 1534 1536 1536 1538 1537 1539 1542 1542 1543 1544 1546 1548 1550 1550 1551 1552
1504 1504 1505 1506 1507 1507 1507 1507 1506 1507 1507 1509 1510 1511 1512 1513 1515 1516 1518 1520 1521 1523 1525 1527 1529 1530 1531 1533 1534 1536 1536 1537 1538 1540 1541 1543 1543 1544 1547 1548 1550 1550 1551
1504 1504 1505 1507 1507 1508 1509 1509 1509 1509 1510 1511 1512 1514 1515 1516 1518 1519 1520 1520 1521 1522 1524 1526 1528 1529 1531 1533 1534 1536 1537 1537 1538 1538 1540 1541 1542 1543 1545 1546 1547 1549 1550
1501 1504 1503 1506 1508 1509 1510 1512 1511 1511 1512 1513 1513 1515 1517 1518 1520 1521 1522 1522 1524 1525 1526 1527 1528 1529 1531 1532 1533 1535 1537 1536 1536 1536 1537 1537 1539 1540 1543 1543 1545 1547 1546
1500 1502 1503 1505 1509 1510 1511 1511 1512 1513 1514 1514 1515 1516 1517 1519 1521 1523 1524 1525 1524 1524 1525 1527 1529 1531 1533 1533 1534 1536 1536 1536 1536 1537 1537 1539 1540 1541 1543 1543 1543 1544 1546
1497 1500 1503 1505 1505 1507 1510 1511 1512 1513 1515 1516 1517 1517 1518 1519 1521 1523 1524 1524 1526 1527 1528 1530 1531 1532 1533 1533 1534 1535 1535 1536 1537 1537 1538 1540 1541 1541 1542 1543 1542 1540 1542
1493 1496 1498 1501 1504 1506 1508 1510 1512 1514 1514 1515 1516 1518 1518 1520 1522 1523 1525 1526 1526 1527 1528 1529 1531 1533 1534 1535 1534 1535 1535 1536 1537 1538 1538 1539 1539 1538 1538 1539 1541 1540 1538
1490 1493 1496 1500 1503 1506 1508 1509 1511 1513 1513 1515 1517 1518 1518 1520 1523 1525 1526 1525 1526 1526 1528 1528 1530 1532 1534 1534 1536 1535 1536 1536 1537 1538 1536 1536 1538 1539 1537 1536 1538 1538 1534
1489 1492 1495 1499 1503 1505 1508 1510 1512 1513 1514 1516 1517 1517 1519 1521 1522 1525 1525 1525 1525 1526 1527 1528 1530 1532 1533 1534 1533 1534 1534 1533 1535 1537 1537 1537 1538 1539 1539 1537 1535 1535 1533
1491 1492 1495 1498 1502 1504 1506 1508 1511 1514 1515 1516 1519 1520 1520 1522 1523 1524 1526 1526 1526 1527 1528 1528 1530 1531 1530 1531 1532 1533 1533 1534 1535 1534 1534 1534 1535 1535 1536 1536 1535 1533 1531
1493 1495 1497 1500 1503 1507 1509 1513 1515 1517 1518 1518 1521 1522 1524 1525 1526 1527 1528 1528 1528 1529 1528 1530 1531 1532 1531 1532 1533 1533 1532 1533 1533 1534 1533 1532 1534 1534 1534 1533 1531 1531 1532
1498 1501 1503 1506 1508 1511 1512 1517 1520 1521 1523 1523 1524 1525 1526 1527 1528 1529 1529 1529 1530 1531 1531 1532 1534 1536 1535 1535 1534 1534 1533 1532 1533 1533 1533 1533 1533 1533 1532 1530 1530 1530 1530
1504 1507 1509 1511 1514 1516 1518 1520 1523 1525 1526 1528 1528 1529 1529 1529 1529 1530 1531 1532 1533 1534 1535 1536 1537 1537 1537 1537 1536 1536 1535 1534 1534 1534 1533 1533 1532 1531 1530 1529 1529 1529 1528
1511 1514 1516 1518 1520 1521 1523 1526 1527 1530 1531 1532 1532 1531 1531 1531 1532 1533 1534 1535 1536 1537 1538 1538 1538 1538 1537 1537 1538 1537 1536 1535 1534 1534 1533 1532 1531 1530 1529 1529 1528 1527 1526
1517 1519 1520 1522 1523 1526 1528 1529 1531 1533 1534 1535 1535 1534 1534 1534 1535 1536 1537 1537 1537 1539 1539 1540 1540 1540 1540 1539 1538 1537 1536 1536 1534 1533 1532 1532 1530 1529 1529 1528 1527 1526 1525
1520 1523 1525 1527 1529 1531 1533 1535 1536 1536 1535 1536 1536 1537 1538 1538 1538 1539 1539 1539 1540 1541 1540 1539 1539 1539 1539 1538 1537 1536 1535 1534 1533 1532 1532 1531 1530 1529 1528 1527 1526 1525 1524
1526 1527 1528 1530 1531 1533 1535 1536 1537 1537 1537 1535 1536 1538 1539 1539 1539 1539 1540 1541 1541 1541 1540 1540 1539 1538 1538 1537 1536 1536 1535 1534 1533 1532 1531 1530 1529 1528 1527 1526 1525 1524 1523
1528 1529 1530 1531 1533 1534 1536 1537 1536 1537 1539 1538 1538 1539 1539 1539 1541 1541 1542 1541 1540 1539 1539 1538 1538 1538 1537 1536 1535 1535 1535 1534 1531 1530 1530 1529 1528 1527 1526 1524 1523 1522 1521
1529 1529 1529 1532 1532 1533 1534 1535 1536 1537 1538 1538 1537 1538 1538 1539 1541 1540 1540 1540 1539 1538 1537 1537 1537 1536 1536 1534 1534 1534 1533 1532 1529 1528 1528 1527 1526 1526 1524 1522 1522 1521 1520
1529 1529 1529 1530 1531 1532 1533 1534 1534 1535 1536 1537 1538 1537 1538 1539 1540 1540 1539 1539 1538 1537 1536 1536 1536 1536 1535 1533 1533 1532 1531 1530 1527 1526 1525 1525 1524 1524 1522 1521 1520 1519 1518
1528 1529 1529 1527 1528 1531 1531 1532 1533 1534 1535 1536 1537 1538 1538 1538 1539 1537 1537 1537 1536 1536 1536 1536 1535 1533 1532 1531 1531 1530 1527 1527 1526 1524 1523 1522 1522 1521 1520 1520 1520 1518 1517
1528 1527 1528 1527 1527 1528 1529 1530 1532 1533 1534 1535 1536 1536 1537 1536 1537 1536 1536 1535 1535 1536 1535 1534 1532 1532 1531 1529 1528 1527 1526 1525 1523 1521 1520 1519 1519 1519 1520 1519 1518 1517 1516
1527 1526 1527 1527 1527 1526 1527 1529 1530 1531 1532 1533 1533 1534 1534 1535 1535 1534 1534 1533 1534 1534 1533 1532 1532 1530 1529 1528 1526 1525 1523 1522 1521 1520 1518 1518 1518 1519 1519 1517 1517 1516 1515
Wind_Speed
5 4 7 6 7 11 11 14 12 9 7 8 5 5 9 12 15 16 15 16 16 15 14 15 15 13 14 10 6 7 12 9 7 11 14 13 13 9 11 13 12 11 9
3 2 4 1 8 8 7 9 8 8 8 9 9 7 8 12 14 16 16 17 18 17 17 15 14 15 11 9 9 5 7 7 10 9 8 7 14 15 13 10 12 11 10
2 1 1 5 4 5 3 3 4 3 4 5 8 8 7 7 11 12 16 20 20 20 18 15 13 12 7 7 5 5 10 10 7 8 10 9 10 14 13 11 11 9 12
2 2 3 1 2 2 3 2 3 1 3 6 10 10 10 7 8 9 13 14 15 15 15 15 15 9 4 6 4 3 6 7 7 5 9 9 4 5 10 10 11 7 8
1 2 3 1 1 1 1 1 3 4 4 7 6 6 6 7 7 6 7 8 10 13 15 14 13 11 8 6 10 12 10 10 9 10 14 13 11 11 11 11 7 11 11
7 5 8 5 4 2 2 4 7 7 7 7 6 5 7 4 4 3 3 6 7 7 8 7 6 6 11 9 9 8 7 10 11 11 11 10 11 11 11 11 9 10 9
8 8 11 7 5 4 6 5 7 9 9 11 11 10 8 7 7 5 5 4 5 3 2 3 3 4 3 8 14 11 10 10 9 9 14 13 14 13 11 12 11 11 9
10 11 13 7 7 5 7 8 8 8 9 10 9 8 8 8 7 7 6 5 10 12 12 10 9 7 9 8 8 5 6 5 5 5 6 6 5 6 6 7 5 5 2
10 14 13 13 15 13 10 10 8 7 6 5 6 9 11 12 11 10 12 10 9 11 11 9 10 10 9 8 3 2 4 3 2 1 1 0 1 2 3 4 7 6 4
12 16 18 19 16 12 11 9 8 8 8 8 6 8 11 13 16 15 9 7 9 10 10 10 12 11 9 5 3 2 4 4 3 3 4 8 11 12 11 9 9 8 5
14 20 22 17 11 10 9 10 11 10 10 5 5 8 11 14 15 14 14 9 7 11 11 11 11 10 8 7 3 3 5 4 8 10 10 11 11 12 10 12 9 8 8
19 20 19 15 10 8 6 9 9 9 7 6 6 9 11 11 13 16 14 9 7 8 11 8 6 4 1 3 4 3 2 5 5 7 11 7 2 7 10 13 11 7 6
17 19 18 16 12 10 9 9 7 4 7 10 11 9 8 6 4 6 4 4 3 3 3 3 4 4 3 3 6 6 3 1 1 5 7 5 7 12 11 8 6 10 10
20 22 21 20 19 17 15 14 14 15 14 14 12 11 10 9 8 8 4 3 3 3 8 11 11 11 11 9 6 3 6 5 4 6 3 4 5 7 8 9 6 6 6
22 21 21 19 19 21 21 20 18 18 14 13 12 12 10 9 9 8 9 10 10 12 14 13 11 9 9 9 11 12 11 6 4 5 6 5 4 5 7 10 4 6 6
23 23 23 24 23 22 21 23 21 18 16 15 15 12 12 10 11 12 12 13 14 13 13 11 9 7 5 5 4 6 7 7 6 2 2 5 6 6 10 4 6 7 6
24 22 21 19 20 20 19 19 21 20 18 16 13 12 12 12 14 16 18 17 15 12 8 7 7 7 8 8 7 5 5 8 7 5 4 6 7 8 8 7 7 7 6
23 21 20 20 19 12 11 13 14 12 14 18 17 17 14 14 15 15 13 10 9 9 5 5 5 4 4 4 4 4 5 4 3 5 5 7 7 8 7 7 7 7 7
16 12 11 11 11 10 11 10 8 4 3 5 9 15 15 16 16 15 12 11 7 5 4 4 3 2 3 4 5 5 7 5 8 5 6 7 7 7 7 7 7 9 7
9 13 10 8 9 8 7 6 5 5 5 4 7 4 7 4 6 8 8 5 5 4 4 3 6 2 5 6 4 4 4 5 5 5 7 7 7 7 7 7 7 7 7
7 8 5 3 8 5 3 2 3 3 7 3 3 5 7 4 4 3 2 4 3 3 4 2 2 6 4 3 5 5 5 5 4 5 7 7 8 8 8 8 6 7 8
5 1 8 6 4 3 2 3 2 4 2 1 2 7 11 6 1 1 2 2 3 3 3 3 3 3 5 6 5 5 4 6 5 4 6 8 7 8 9 7 7 8 8
3 2 6 8 6 0 6 5 2 2 5 4 4 1 2 1 2 1 2 2 3 2 4 4 6 5 4 5 7 6 8 7 7 8 11 16 3 9 10 8 7 8 9
5 4 4 8 5 4 5 5 3 6 3 4 5 4 3 3 2 4 1 2 2 3 3 5 5 5 6 6 5 7 7 8 9 14 20 15 2 6 7 8 8 8 8
12 5 5 8 6 4 9 6 7 5 5 6 6 6 5 5 5 4 3 3 2 2 3 4 5 7 5 6 5 10 13 15 14 14 11 8 1 6 9 8 8 8 8
9 7 7 9 7 6 8 7 7 6 7 7 8 8 7 7 6 6 5 5 2 3 4 4 5 6 2 6 9 9 8 7 7 8 7 3 5 5 7 8 8 9 9
Wind_Direction
26 13 348 21 63 74 67 61 54 79 80 81 120 158 183 182 186 186 193 199 194 196 190 199 205 195 225 276 242 231 249 252 265 214 195 186 175 187 212 229 219 219 224
41 51 341 84 69 56 84 63 60 76 78 90 99 131 155 168 170 179 179 177 181 180 183 194 198 218 232 266 256 216 235 252 250 222 202 209 207 209 221 211 214 205 200
107 353 224 265 308 353 10 40 48 79 75 104 116 111 125 160 178 183 182 180 178 182 187 189 200 222 225 207 217 230 241 244 240 231 227 210 216 201 204 198 210 199 208
183 222 89 234 256 315 331 309 360 132 132 127 118 107 109 137 154 175 200 197 195 199 205 204 215 240 277 203 240 228 298 277 233 254 234 222 210 191 198 212 211 193 187
265 234 143 54 157 179 255 131 77 148 138 157 148 126 117 124 134 160 190 207 215 222 224 227 228 236 226 241 238 244 259 286 283 263 253 227 206 201 174 185 195 200 173
203 246 166 139 174 163 110 68 87 104 102 130 140 128 134 149 163 157 197 205 203 201 205 211 227 246 230 235 234 240 263 272 255 236 218 202 158 180 178 173 171 209 245
209 192 205 165 194 156 119 136 117 121 111 119 134 145 147 152 146 137 127 147 152 152 137 138 195 204 219 269 252 243 244 236 212 212 189 194 188 197 206 206 206 202 212
222 193 211 172 177 202 170 172 158 144 132 131 145 148 146 151 146 135 121 99 135 149 147 161 176 167 157 185 208 209 202 203 177 179 190 201 204 218 224 219 219 219 174
235 202 202 183 188 190 165 144 152 167 173 191 158 145 149 149 152 162 157 177 193 176 190 183 194 183 180 185 225 135 129 122 115 111 108 49 316 293 287 282 243 237 202
218 201 187 195 206 195 183 179 182 192 195 203 185 159 162 156 145 155 174 212 171 169 170 156 156 167 175 190 209 115 70 53 38 20 343 322 310 310 304 300 284 256 238
210 191 192 199 198 188 203 211 201 221 232 209 166 143 154 159 154 141 146 152 173 170 162 161 165 163 171 172 187 264 310 337 358 351 353 17 23 22 342 321 320 301 272
174 176 174 178 175 164 179 194 206 213 197 170 160 144 144 146 163 177 187 198 173 150 145 148 153 139 196 251 250 231 143 112 98 38 1 35 273 246 274 309 322 346 346
160 155 152 139 136 140 150 152 164 158 136 130 121 119 112 104 108 116 113 122 138 170 173 216 256 266 273 352 14 9 17 20 232 215 220 253 311 313 328 346 329 328 337
131 125 121 121 119 113 111 109 110 109 110 109 107 102 99 96 94 82 75 77 76 64 60 52 50 46 43 33 13 332 323 344 261 242 234 267 290 294 290 295 314 318 314
117 114 115 114 112 113 109 105 106 102 93 96 98 98 94 92 88 90 83 79 85 81 68 57 62 60 52 39 25 21 16 32 28 8 3 359 343 334 321 309 347 331 320
115 113 111 110 109 108 109 105 99 94 93 89 86 85 89 89 85 87 94 96 94 86 71 71 71 64 66 69 60 52 14 4 339 70 354 333 333 339 330 10 348 321 321
107 108 105 104 103 101 98 98 100 96 83 74 68 69 75 84 92 94 92 91 88 78 61 58 52 49 44 33 27 15 5 355 13 22 341 343 335 333 332 337 327 324 305
111 106 98 96 98 98 86 84 79 77 75 60 62 65 72 90 97 92 84 79 76 66 52 61 43 38 18 6 356 351 328 352 305 312 358 333 331 329 334 328 321 324 317
95 103 102 108 117 114 110 114 113 95 126 69 88 74 68 79 81 79 71 63 61 53 44 12 31 17 339 314 327 339 349 323 8 34 340 331 330 330 327 322 316 316 326
119 117 115 115 126 122 126 111 94 93 71 65 89 130 49 34 65 56 67 53 45 32 21 13 3 347 353 345 3 340 353 343 347 338 336 339 333 335 329 327 324 322 319
131 156 139 193 137 115 69 47 107 94 43 79 265 288 258 70 95 74 24 14 7 17 354 351 17 340 15 1 341 9 343 330 321 340 339 337 333 336 334 325 322 327 323
135 173 174 159 193 178 185 213 256 308 234 268 313 54 147 94 75 48 352 354 357 4 334 8 360 334 333 309 343 335 339 335 313 325 341 328 332 339 318 334 345 334 328
202 195 208 205 227 235 181 246 288 186 201 173 191 220 75 136 288 304 5 328 344 344 344 8 9 343 319 308 311 313 301 318 288 303 329 333 354 333 332 337 339 336 324
283 241 274 224 165 185 223 243 204 237 150 185 202 214 233 258 274 277 316 303 339 348 352 340 323 307 300 300 303 295 262 275 270 296 316 316 309 318 336 357 335 324 328
318 238 259 229 242 210 221 222 211 197 220 231 233 236 247 251 256 261 261 278 281 328 311 324 289 314 318 317 275 279 286 291 296 302 310 312 50 33 351 320 323 342 337
296 282 254 253 252 243 217 224 215 226 232 232 237 242 248 252 253 242 259 250 227 282 241 273 334 352 326 316 330 317 319 323 331 330 331 333 75 6 333 340 343 334 336